Live-Position
3D-Globus wird geladen...
Über OneWeb SL0407
Group: 3 satellites
Beschreibung wird geladen...
Nächste Überflüge
Passes for default location (London). Set your location on the main map for personalized predictions.
Höhenverlauf
Loading altitude history...
No altitude history available
Zweizeiliger Elementsatz
1 50487U 21132U 26126.61225032 .00000070 00000-0 14435-3 0 9998
2 50487 87.9186 343.7196 0001905 78.8730 281.2616 13.18693407216081
Epoch: 6. Mai 2026 •
Age: 13 hours
Aktueller Status
Höhe 1201.3 km
Geschwindigkeit 7.26 km/s
Subsatellitenpunkt 74.42°N,
128.47°W
Startdatum 27. Dez. 2021
Alter 4.3 years
Typ internet
Startgruppe
Unknown Vehicle •
OneWeb Launch 12 •
36 satellites
OneWeb SL0389
50469
OneWeb SL0390 50470
OneWeb SL0391 50471
OneWeb SL0392 50472
OneWeb SL0393 50473
OneWeb SL0394 50474
OneWeb SL0395 50475
OneWeb SL0396 50476
OneWeb SL0397 50477
OneWeb SL0398 50478
OneWeb SL0399 50479
OneWeb SL0400 50480
OneWeb SL0401 50481
OneWeb SL0402 50482
OneWeb SL0403 50483
OneWeb SL0404 50484
OneWeb SL0405 50485
OneWeb SL0406 50486
OneWeb SL0409 50488
OneWeb SL0412 50489
...and 15 more
Technische Details
Klassifizierung Payload
Masse 148.00 kg
Trockenmasse 140.00 kg
Gesamtmasse 148.00 kg
Länge 1.30 m
Durchmesser 1.00 m
Spannweite 5.00 m
Form Trapezoid+2 pan
Hersteller ONEWUS
Bus-Typ ARROW
Phasenstatus In Orbit
Besitzer/Staat ONEWEBN/UK
Most Searched
Loading...